Satellite-Ground Cal/Val Region Overpasses Predictions

Prediction of Satellite NPP Overpassing Cal/Val Region: PacNW

Region Location: (Latitude: 10.00, Longitude: 139.50) to (Latitude: 22.70, Longitude: 165.60).

Table of predicted overpasses for the next 14.0 days since TLE Epoch: 12/7/2018
Interval Starting Time Starting Location Ending Time Ending Location
1 12/08/2018 03:24:10 ( 10.06, 148.68) 12/08/2018 03:27:45 ( 22.68, 145.68)
2 12/08/2018 15:56:02 ( 22.65, 145.91) 12/08/2018 15:59:37 ( 10.03, 142.91)
3 12/09/2018 03:05:07 ( 10.02, 153.45) 12/09/2018 03:08:42 ( 22.65, 150.45)
4 12/09/2018 15:37:00 ( 22.68, 150.67) 12/09/2018 15:40:36 ( 10.00, 147.66)
5 12/10/2018 02:46:06 ( 10.05, 158.20) 12/10/2018 02:49:41 ( 22.68, 155.20)
6 12/10/2018 15:17:59 ( 22.65, 155.42) 12/10/2018 15:21:34 ( 10.03, 152.43)
7 12/11/2018 02:27:03 ( 10.02, 162.96) 12/11/2018 02:30:38 ( 22.65, 159.96)
8 12/11/2018 14:58:56 ( 22.68, 160.19) 12/11/2018 15:02:32 ( 10.00, 157.18)
9 12/12/2018 02:10:36 ( 19.10, 165.59) 12/12/2018 02:11:37 ( 22.68, 164.71)
10 12/12/2018 03:49:31 ( 10.00, 142.35) 12/12/2018 03:52:55 ( 21.98, 139.51)
11 12/12/2018 14:39:55 ( 22.65, 164.94) 12/12/2018 14:43:30 ( 10.03, 161.94)
12 12/12/2018 16:21:25 ( 22.65, 139.56) 12/12/2018 16:21:29 ( 22.41, 139.50)
13 12/13/2018 03:30:29 ( 10.03, 147.10) 12/13/2018 03:34:04 ( 22.66, 144.10)
14 12/13/2018 16:02:22 ( 22.68, 144.33) 12/13/2018 16:05:57 ( 10.06, 141.33)
15 12/14/2018 03:11:27 ( 10.00, 151.86) 12/14/2018 03:15:03 ( 22.69, 148.85)
16 12/14/2018 15:43:21 ( 22.65, 149.08) 12/14/2018 15:46:56 ( 10.03, 146.08)
17 12/15/2018 02:52:25 ( 10.03, 156.61) 12/15/2018 02:56:00 ( 22.66, 153.61)
18 12/15/2018 15:24:18 ( 22.68, 153.84) 12/15/2018 15:27:53 ( 10.06, 150.84)
19 12/16/2018 02:33:23 ( 10.01, 161.37) 12/16/2018 02:36:59 ( 22.69, 158.36)
20 12/16/2018 15:05:17 ( 22.64, 158.59) 12/16/2018 15:08:52 ( 10.03, 155.59)
21 12/17/2018 02:15:00 ( 12.33, 165.60) 12/17/2018 02:17:56 ( 22.66, 163.12)
22 12/17/2018 03:55:51 ( 10.04, 140.75) 12/17/2018 03:57:22 ( 15.39, 139.51)
23 12/17/2018 14:46:14 ( 22.67, 163.35) 12/17/2018 14:49:49 ( 10.05, 160.35)
24 12/18/2018 03:36:49 ( 10.02, 145.51) 12/18/2018 03:40:24 ( 22.64, 142.51)
25 12/18/2018 14:30:12 ( 12.14, 165.59) 12/18/2018 14:30:48 ( 10.02, 165.10)
26 12/18/2018 16:08:42 ( 22.69, 142.74) 12/18/2018 16:12:18 ( 10.02, 139.73)
27 12/19/2018 03:17:48 ( 10.05, 150.26) 12/19/2018 03:21:23 ( 22.67, 147.26)
28 12/19/2018 15:49:40 ( 22.66, 147.49) 12/19/2018 15:53:15 ( 10.04, 144.49)
29 12/20/2018 02:58:45 ( 10.02, 155.02) 12/20/2018 03:02:20 ( 22.65, 152.02)
30 12/20/2018 15:30:38 ( 22.69, 152.25) 12/20/2018 15:34:14 ( 10.01, 149.24)
31 12/21/2018 02:39:44 ( 10.06, 159.77) 12/21/2018 02:43:19 ( 22.68, 156.77)


NCC Satellite Cal/Val Overpasses Prediction Service
